Regional Weather Roundup
Issued by NWS Charleston, SC

Current Version | Previous Version | Graphics & Text | Print | Product List | Glossary On
Versions: 1 2 3 4 5 6 7 8 9 10 11 12 13 14 15 16 17 18 19 20 21 22 23 24 25 26 27 28 29 30 31 32 33 34 35 36 37 38 39 40 41 42 43 44 45 46 47 48 49 50
000 ASUS42 KCHS 190327 RWRCHS REGIONAL WEATHER ROUNDUP NATIONAL WEATHER SERVICE CHARLESTON SC 1000 PM EST SAT NOV 18 2017 NOTE: "FAIR" INDICATES FEW OR NO CLOUDS BELOW 12,000 FEET WITH NO SIGNIFICANT WEATHER AND/OR OBSTRUCTIONS TO VISIBILITY. NOT ALL STATIONS ARE QUALITY CONTROLLED. USE DATA WITH CAUTION... ESPECIALLY DEWPOINT OBSERVATIONS. SCZ027-030-031-034>040-042>050-190400- ...SOUTHEAST SOUTH CAROLINA... CITY SKY/WX TMP DP RH WIND PRES REMARKS N CHARLESTON CLEAR 63 59 87 S12 29.82F WATERFRONT PRK NOT AVBL JOHNS ISLAND FAIR 66 63 88 S12G18 29.83F PINOPOLIS N/A 64 57 77 S7 29.72F MONCKS CORNER FAIR 61 57 88 S8 29.80F SUMMERVILLE FAIR 63 57 82 S7 29.82F BEAUFORT MCAS NOT AVBL BEAUFORT ARPT FAIR 64 59 82 S8 29.83F HILTON HEAD IS CLEAR 66 61 82 S10G17 29.86F WALTERBORO CLEAR 61 55 82 S9 29.82F ALLENDALE FAIR 64 54 68 VRB3 29.79S ...SOUTHERN MIDLANDS AND PEE DEE... CITY SKY/WX TMP DP RH WIND PRES REMARKS GEORGETOWN FAIR 63 63 100 SW14G22 29.83F KINGSTREE FAIR 61 55 82 S8 29.78F ORANGEBURG MOCLDY 62 52 69 SW9 29.79S BARNWELL N/A 66 55 68 S6 29.78F AIKEN MOCLDY 64 50 59 S15G22 29.77F MANNING FAIR 63 59 88 MISG 29.78F COLUMBIA PTCLDY 65 53 65 S7 29.73F SUMTER MOCLDY 63 51 66 S13 29.73F FLORENCE PTCLDY 64 56 75 S12 29.76F MYRTLE BEACH CLEAR 65 57 75 SW12G18 29.82F N MYRTLE BEACH CLEAR 63 59 87 SW15 29.81F $$ GAZ063-065-086>088-099>101-113>116-118-119-134>141-150-190400- ...SOUTHEAST GEORGIA... CITY SKY/WX TMP DP RH WIND PRES REMARKS SAVANNAH ARPT CLEAR 63 57 81 S12 29.85F HUNTER AAF CLEAR 65 56 73 S10 29.83F FORT STEWART CLEAR 63 54 72 S6 29.84F STATESBORO CLEAR 65 52 61 SW10 29.82S SYLVANIA CLEAR 64 56 76 SW5 29.81F CLAXTON FAIR 66 57 71 S6 29.83F ...CSRA...CENTRAL AND FAR SOUTHEAST GEORGIA... CITY SKY/WX TMP DP RH WIND PRES REMARKS THOMSON CLOUDY 65 53 64 W14 29.77F AUGUSTA-BUSH MOCLDY 67 52 58 S10 29.76F AUGUSTA-DANIEL MOCLDY 67 52 58 S13 29.77F SWAINSBORO FAIR 64 55 72 N12 29.81F VIDALIA MOCLDY 64 57 77 SW12G17 29.82F EASTMAN FAIR 67 52 58 S10G17 29.83F HAZLEHURST FAIR 65 52 61 SW10 29.83F ALMA CLEAR 64 58 80 S10 29.86F WAYCROSS CLEAR 63 58 83 SW9 29.88F JESUP FAIR 63 55 77 SW7 29.87F BAXLEY FAIR 63 59 88 SW9 29.85F BRUNSWICK CLEAR 64 55 72 SW9 29.90F SAINT SIMONS CLEAR 63 58 83 SW7 29.90S $$ SCZ027-028-034-036>038-045-046-048>050-GAZ119-141-190400- ...LAKE AND SUPPLEMENTAL COASTAL OBSERVATIONS... STATION/POSITION TIME TEMP WIND PRES WAVE SWELL AIR SEA DIR/SP/G HT/PER HT/PER/DIR (UTC) (F) (DEG/KT/KT) (MB) (FT/S) (FT/S/D) WINYAH BAY 0230 65 220/ 11 1010.0S LAKE MURRAY 0320 66 190/ 17/ 25 1004.7 ACE BASIN NERRS 0245 65 170/ 1 1010.0F FORT PULASKI NOT AVBL SAPELO ISLAND 0300 62 210/ 8 1012.0 $$ ANZ835-935-AMZ111-154-330-350-352-354-370-450-454-472-190400- ...C-MAN AND BUOY OBSERVATIONS... STATION/POSITION TIME TEMP WIND PRES WAVE SWELL AIR SEA DIR/SP/G HT/PER HT/PER/DIR (UTC) (F) (DEG/KT/KT) (MB) (FT/S) (FT/S/D) BUOY 41004 0310 74 75 220/ 23/ 31 1010.4 BUOY 41008 0250 70 69 200/ 16/ 19 1012.0R 3/ 4 2/ 80/11 FOLLY BEACH CMAN 0300 66 200/ 15/ 17 1010.7F CAPERS NEARSHORE 0308 64 63 220/ 16/ 21 1009.6F FRIPP NEARSHORE 0308 63 62 190/ 14/ 23 1010.0F STATION/POSITION TIME TEMP WIND PRES WAVE SWELL AIR SEA DIR/SP/G HT/PER HT/PER/DIR (UTC) (F) (DEG/KT/KT) (MB) (FT/S) (FT/S/D) 5E ST. MARYS GA 0300 66 N/A 2/10 FRYING PAN BUOY 0310 73 72 230/ 25/ 31 1009.4 BUOY 41025 0310 72 66 200/ 29/ 37 1008.4 CAPE LOOKOUT NC 0300 230/ 12/ 17 1009.2F BUOY 41002 0250 72 76 200/ 14/ 16 1014.5F 4/ 8 3/ 20/ 8 BUOY 41010 NOT AVBL ST AUGUSTINE FL 0300 65 68 250/ 5/ 7 1014.0F $$

USA.gov is the U.S. government's official web portal to all federal, state and local government web resources and services.